SV1BYK-4 Weather Reports


Display with metric or nautical units.
time (UTC)temp
F
wind
direction
speed
MPH
gust
MPH
rain 1hr
in
rain 24hr
in
rain mn
in
humidity
%
barometer
mb
20260507171838 70 253 4.0 8.0 0.00 0.00 0.00 44 1016.0
20260507170938 71 260 2.0 8.0 0.00 0.00 0.00 40 1016.0
20260507170038 71 243 3.0 7.0 0.00 0.00 0.00 41 1015.7
20260507165138 71 224 5.0 7.0 0.00 0.00 0.00 37 1015.5
20260507164238 72 183 2.0 6.0 0.00 0.00 0.00 40 1015.4
20260507163339 71 166 2.0 7.0 0.00 0.00 0.00 42 1015.4
20260507162438 72 198 1.0 7.0 0.00 0.00 0.00 41 1015.6
20260507161539 72 121 2.0 4.0 0.00 0.00 0.00 41 1015.7
20260507160638 72 107 3.0 7.0 0.00 0.00 0.00 39 1015.7
20260507155738 72 133 2.0 7.0 0.00 0.00 0.00 39 1015.6
20260507154838 72 257 2.0 6.0 0.00 0.00 0.00 40 1015.8
20260507153938 72 250 1.0 6.0 0.00 0.00 0.00 42 1015.8
20260507152138 73 266 5.0 9.0 0.00 0.00 0.00 45 1016.2
20260507151238 72 250 7.0 9.0 0.00 0.00 0.00 45 1016.3
20260507150338 74 146 2.0 6.0 0.00 0.00 0.00 37 1016.1
20260507145439 74 247 2.0 9.0 0.00 0.00 0.00 38 1016.2
20260507144538 73 262 6.0 11.0 0.00 0.00 0.00 37 1016.2
20260507142738 74 211 3.0 11.0 0.00 0.00 0.00 34 1016.2
20260507141838 75 176 4.0 11.0 0.00 0.00 0.00 31 1016.3
20260507140938 74 255 5.0 11.0 0.00 0.00 0.00 31 1016.2
20260507140038 75 236 6.0 11.0 0.00 0.00 0.00 31 1016.0
20260507135138 76 231 4.0 13.0 0.00 0.00 0.00 31 1015.9
20260507134238 77 201 4.0 13.0 0.00 0.00 0.00 31 1015.8
20260507133338 76 176 3.0 11.0 0.00 0.00 0.00 33 1015.8
20260507132438 76 253 5.0 11.0 0.00 0.00 0.00 34 1015.8
20260507131539 75 260 4.0 9.0 0.00 0.00 0.00 32 1015.7
20260507130638 75 238 5.0 11.0 0.00 0.00 0.00 33 1015.8
20260507124838 72 251 7.0 13.0 0.00 0.00 0.00 46 1016.1
20260507123938 72 256 3.0 11.0 0.00 0.00 0.00 46 1016.4
20260507123038 72 260 8.0 11.0 0.00 0.00 0.00 43 1016.3
20260507122138 73 246 5.0 9.0 0.00 0.00 0.00 45 1016.4
20260507120338 74 257 3.0 11.0 0.00 0.00 0.00 48 1016.5
20260507115438 74 167 4.0 8.0 0.00 0.00 0.00 52 1016.5
20260507114538 74 209 2.0 15.0 0.00 0.00 0.00 54 1016.5
20260507112738 73 236 3.0 13.0 0.00 0.00 0.00 49 1016.8
20260507111838 73 222 4.0 13.0 0.00 0.00 0.00 49 1016.7
20260507110938 73 216 3.0 11.0 0.00 0.00 0.00 50 1016.8
20260507105138 73 211 5.0 14.0 0.00 0.00 0.00 50 1016.7
20260507104238 71 242 8.0 17.0 0.00 0.00 0.00 59 1016.6
20260507103338 73 218 4.0 13.0 0.00 0.00 0.00 59 1016.5
20260507102438 74 238 4.0 11.0 0.00 0.00 0.00 57 1016.2
20260507101538 73 222 4.0 9.0 0.00 0.00 0.00 60 1016.1
20260507100638 74 117 2.0 11.0 0.00 0.00 0.00 57 1016.1
20260507095738 74 231 3.0 9.0 0.00 0.00 0.00 58 1016.2
20260507094838 74 215 3.0 8.0 0.00 0.00 0.00 56 1016.2
20260507093938 74 173 4.0 8.0 0.00 0.00 0.00 54 1016.2
20260507092138 75 226 2.0 6.0 0.00 0.00 0.00 46 1016.2
20260507090338 74 129 2.0 6.0 0.00 0.00 0.00 45 1016.0
20260507085438 74 115 2.0 6.0 0.00 0.00 0.00 44 1016.0
20260507084538 74 121 2.0 7.0 0.00 0.00 0.00 45 1016.0
20260507083638 73 132 3.0 6.0 0.00 0.00 0.00 45 1016.2
20260507082738 74 186 0.0 4.0 0.00 0.00 0.00 44 1016.1
20260507081838 74 164 2.0 4.0 0.00 0.00 0.00 42 1015.9
20260507080938 73 182 3.0 4.0 0.00 0.00 0.00 45 1016.0
20260507075138 72 112 2.0 7.0 0.00 0.00 0.00 46 1016.0
20260507074238 72 251 4.0 8.0 0.00 0.00 0.00 45 1015.9
20260507072438 71 202 2.0 4.0 0.00 0.00 0.00 46 1015.5
20260507071538 72 120 2.0 4.0 0.00 0.00 0.00 47 1015.7
20260507070638 71 159 2.0 6.0 0.00 0.00 0.00 50 1015.8
20260507065738 71 153 2.0 6.0 0.00 0.00 0.00 50 1015.9
20260507064838 71 174 3.0 4.0 0.00 0.00 0.00 51 1016.0
20260507063038 71 127 2.0 6.0 0.00 0.00 0.00 50 1015.9
20260507062138 70 98 3.0 4.0 0.00 0.00 0.00 50 1016.1
20260507061238 71 97 2.0 4.0 0.00 0.00 0.00 50 1016.2
20260507060338 70 14 1.0 2.0 0.00 0.00 0.00 51 1016.2
20260507055438 71 314 0.0 2.0 0.00 0.00 0.00 50 1016.1
20260507054538 70 314 0.0 2.0 0.00 0.00 0.00 52 1016.1
20260507053638 68 311 0.0 2.0 0.00 0.00 0.00 52 1015.9
20260507052738 67 292 0.0 2.0 0.00 0.00 0.00 53 1015.8
20260507051838 66 294 1.0 2.0 0.00 0.00 0.00 53 1015.6
20260507050938 64 313 1.0 2.0 0.00 0.00 0.00 55 1015.7
20260507050038 63 324 1.0 2.0 0.00 0.00 0.00 56 1015.7
20260507044238 62 316 1.0 2.0 0.00 0.00 0.00 58 1015.7
20260507043338 61 314 0.0 2.0 0.00 0.00 0.00 59 1015.7
20260507042438 61 314 1.0 2.0 0.00 0.00 0.00 60 1015.6
20260507041538 61 314 1.0 2.0 0.00 0.00 0.00 61 1015.6
20260507040638 60 318 1.0 2.0 0.00 0.00 0.00 61 1015.7
20260507035738 60 329 1.0 2.0 0.00 0.00 0.00 61 1015.8
20260507034838 60 318 0.0 2.0 0.00 0.00 0.00 61 1015.8
20260507033938 60 314 0.0 2.0 0.00 0.00 0.00 61 1015.6
20260507033038 60 314 0.0 2.0 0.00 0.00 0.00 60 1015.6
20260507032138 60 314 1.0 2.0 0.00 0.00 0.00 60 1015.4
20260507031238 60 322 0.0 2.0 0.00 0.00 0.00 60 1015.5
20260507025438 60 338 0.0 2.0 0.00 0.00 0.00 60 1015.4
20260507024538 60 337 0.0 2.0 0.00 0.00 0.00 60 1015.3
20260507023638 60 337 0.0 2.0 0.00 0.00 0.00 60 1015.3
20260507022738 60 337 0.0 2.0 0.00 0.00 0.00 60 1015.3
20260507021838 60 337 0.0 2.0 0.00 0.00 0.00 59 1015.3
20260507020038 60 337 0.0 2.0 0.00 0.00 0.00 59 1015.2
20260507015138 61 338 0.0 2.0 0.00 0.00 0.00 58 1015.2
20260507013338 61 314 0.0 2.0 0.00 0.00 0.00 57 1015.0
20260507012438 61 314 0.0 2.0 0.00 0.00 0.00 57 1015.0
20260507011538 61 314 0.0 2.0 0.00 0.00 0.00 56 1014.8
20260507005738 62 314 0.0 2.0 0.00 0.00 0.00 56 1014.5
20260507004838 62 314 0.0 2.0 0.00 0.00 0.00 56 1014.6
20260507003038 62 292 1.0 4.0 0.00 0.00 0.00 55 1014.5
20260507001238 62 292 0.0 2.0 0.00 0.00 0.00 56 1014.6
20260506235438 62 292 0.0 2.0 0.00 0.00 0.00 57 1014.8
20260506234538 62 0 0.0 0.0 0.00 0.00 0.00 56 1014.9
20260506233638 63 292 0.0 2.0 0.00 0.00 0.00 55 1015.1
20260506232738 63 0 0.0 0.0 0.00 0.00 0.00 56 1015.1
20260506230938 63 292 0.0 2.0 0.00 0.00 0.00 55 1015.3
20260506230038 63 292 0.0 2.0 0.00 0.00 0.00 55 1015.3
20260506225138 64 292 0.0 2.0 0.00 0.00 0.00 54 1015.3
20260506224238 64 292 1.0 2.0 0.00 0.00 0.00 54 1015.3
20260506223338 65 292 0.0 2.0 0.00 0.00 0.00 55 1015.3
20260506221538 66 292 0.0 2.0 0.00 0.00 0.00 52 1015.4
20260506220638 66 292 2.0 2.0 0.00 0.00 0.00 53 1015.5
20260506215738 66 292 0.0 2.0 0.00 0.00 0.00 54 1015.4
20260506214838 66 0 0.0 0.0 0.00 0.00 0.00 53 1015.5
20260506213938 66 0 0.0 0.0 0.00 0.00 0.00 52 1015.5
20260506213038 66 292 0.0 2.0 0.00 0.00 0.00 52 1015.7
20260506212138 66 292 0.0 2.0 0.00 0.00 0.00 51 1015.7
20260506211238 67 292 0.0 2.0 0.00 0.00 0.00 51 1015.8
20260506210338 66 292 0.0 2.0 0.00 0.00 0.00 51 1015.9
20260506203638 67 283 0.0 4.0 0.00 0.00 0.00 49 1016.0
20260506200938 68 262 2.0 4.0 0.00 0.00 0.00 47 1015.9
20260506195138 69 273 3.0 6.0 0.00 0.00 0.00 44 1015.8
20260506194238 69 268 4.0 6.0 0.00 0.00 0.00 43 1015.7
20260506193338 69 270 3.0 4.0 0.00 0.00 0.00 42 1015.7
20260506192438 69 278 2.0 4.0 0.00 0.00 0.00 42 1015.5
20260506191538 70 280 3.0 4.0 0.00 0.00 0.00 41 1015.4
20260506190638 70 277 1.0 4.0 0.00 0.00 0.00 42 1015.4
20260506185738 70 292 2.0 4.0 0.00 0.00 0.00 42 1015.2
20260506183938 70 292 2.0 4.0 0.00 0.00 0.00 42 1015.1
20260506183038 70 290 2.0 4.0 0.00 0.00 0.00 42 1015.0
20260506182138 70 283 2.0 4.0 0.00 0.00 0.00 42 1015.1
20260506180338 70 273 3.0 6.0 0.00 0.00 0.00 42 1014.9
20260506174538 70 259 2.0 6.0 0.00 0.00 0.00 42 1014.9
20260506173638 70 270 3.0 4.0 0.00 0.00 0.00 42 1014.9
20260506172738 70 270 3.0 6.0 0.00 0.00 0.00 42 1014.7